AFL5011 UIII-UWKD

Flight info

Callsign AFL5011
Flight time 2h 38m
Altitude 40000
Route BOGRA5D BOGRA A815 TUTEK A91 SUKOR A817 RO N869 ROTLI A300 ADONI R372 NH N992 KUMEP T796 ORTIM ORTIM1T
Aircraft A359/H-SDE2E3GHIJ3J4J5LM1ORWXY/LB1D1

Departure

Time 2026-04-29 12:41
Airport Irkutsk International Airport (UIII)

Arrival

Time 2026-04-29 15:19
Airport Kazan International Airport (UWKD)
Time Latitude Longitude Altitude Speed Heading
2026-04-29 12:10 52.27189 104.35513 1670 ft 0 kts 87°
2026-04-29 12:31 52.27187 104.35548 1664 ft 5 kts 100°
2026-04-29 12:31 52.27167 104.35600 1667 ft 6 kts 117°
2026-04-29 12:31 52.27154 104.35693 1662 ft 11 kts 95°
2026-04-29 12:32 52.27167 104.35821 1664 ft 12 kts 78°
2026-04-29 12:32 52.27177 104.35971 1666 ft 14 kts 84°
2026-04-29 12:32 52.27183 104.36140 1668 ft 16 kts 88°
2026-04-29 12:32 52.27169 104.36319 1673 ft 16 kts 108°
2026-04-29 12:33 52.27131 104.36504 1664 ft 18 kts 109°
2026-04-29 12:33 52.27084 104.36704 1670 ft 20 kts 112°
2026-04-29 12:33 52.27036 104.36919 1661 ft 21 kts 111°
2026-04-29 12:33 52.26996 104.37146 1670 ft 20 kts 90°
2026-04-29 12:34 52.26975 104.37369 1665 ft 20 kts 113°
2026-04-29 12:34 52.26917 104.37584 1665 ft 22 kts 116°
2026-04-29 12:34 52.26862 104.37814 1662 ft 22 kts 113°
2026-04-29 12:34 52.26797 104.38052 1669 ft 23 kts 115°
2026-04-29 12:35 52.26755 104.38207 1666 ft 15 kts 115°
2026-04-29 12:35 52.26726 104.38309 1672 ft 15 kts 115°
2026-04-29 12:35 52.26682 104.38478 1671 ft 17 kts 113°
2026-04-29 12:35 52.26632 104.38665 1669 ft 19 kts 112°
2026-04-29 12:36 52.26579 104.38867 1671 ft 20 kts 114°
2026-04-29 12:36 52.26521 104.39085 1673 ft 21 kts 113°
2026-04-29 12:36 52.26460 104.39316 1668 ft 23 kts 113°
2026-04-29 12:36 52.26395 104.39559 1671 ft 24 kts 112°
2026-04-29 12:37 52.26335 104.39791 1671 ft 23 kts 114°
2026-04-29 12:37 52.26269 104.40034 1662 ft 24 kts 114°
2026-04-29 12:37 52.26200 104.40288 1670 ft 25 kts 116°
2026-04-29 12:37 52.26128 104.40554 1668 ft 26 kts 114°
2026-04-29 12:38 52.26055 104.40836 1671 ft 28 kts 113°
2026-04-29 12:38 52.26002 104.41121 1657 ft 22 kts 69°
2026-04-29 12:38 52.26090 104.41225 1657 ft 6 kts 24°
2026-04-29 12:38 52.26091 104.41226 1657 ft 0 kts 24°
2026-04-29 12:39 52.26176 104.41283 1666 ft 16 kts 10°
2026-04-29 12:39 52.26237 104.41235 1673 ft 10 kts 313°
2026-04-29 12:40 52.26253 104.41190 1667 ft 0 kts 294°
2026-04-29 12:40 52.26358 104.40795 1669 ft 88 kts 293°
2026-04-29 12:40 52.26731 104.39396 1706 ft 175 kts 294°
2026-04-29 12:41 52.27253 104.37423 2521 ft 200 kts 295°
2026-04-29 12:41 52.27859 104.35195 3601 ft 231 kts 299°
2026-04-29 12:41 52.28538 104.32777 4590 ft 236 kts 298°
2026-04-29 12:41 52.29400 104.30509 5538 ft 236 kts 319°
2026-04-29 12:42 52.30834 104.29210 6504 ft 240 kts 340°
2026-04-29 12:42 52.32429 104.28309 7454 ft 244 kts 341°
2026-04-29 12:42 52.34043 104.27421 8508 ft 246 kts 341°
2026-04-29 12:42 52.35670 104.26500 9545 ft 249 kts 340°
2026-04-29 12:43 52.37291 104.25562 10542 ft 254 kts 340°
2026-04-29 12:43 52.39021 104.24549 11051 ft 276 kts 340°
2026-04-29 12:43 52.40915 104.23432 11417 ft 302 kts 340°
2026-04-29 12:43 52.42970 104.22215 12067 ft 315 kts 340°
2026-04-29 12:44 52.45026 104.20992 12937 ft 322 kts 340°
2026-04-29 12:44 52.47152 104.19725 13795 ft 329 kts 340°
2026-04-29 12:44 52.49321 104.18430 14594 ft 335 kts 340°
2026-04-29 12:44 52.51527 104.17111 15440 ft 339 kts 340°
2026-04-29 12:45 52.53758 104.15775 16325 ft 343 kts 340°
2026-04-29 12:45 52.56017 104.14422 17195 ft 348 kts 340°
2026-04-29 12:45 52.58307 104.13049 18089 ft 353 kts 340°
2026-04-29 12:45 52.60626 104.11655 18853 ft 359 kts 341°
2026-04-29 12:46 52.62993 104.10234 19515 ft 365 kts 341°
2026-04-29 12:46 52.65389 104.08792 20042 ft 367 kts 340°
2026-04-29 12:46 52.67792 104.07341 20256 ft 367 kts 341°
2026-04-29 12:46 52.70190 104.05893 20279 ft 368 kts 341°
2026-04-29 12:47 52.72629 104.04417 20272 ft 369 kts 341°
2026-04-29 12:47 52.75038 104.02959 20276 ft 369 kts 341°
2026-04-29 12:47 52.77448 104.01499 20279 ft 369 kts 341°
2026-04-29 12:47 52.79823 104.00058 20279 ft 369 kts 341°
2026-04-29 12:48 52.82235 103.98593 20276 ft 369 kts 341°
2026-04-29 12:48 52.84641 103.97130 20277 ft 369 kts 341°
2026-04-29 12:48 52.87050 103.95664 20279 ft 369 kts 341°
2026-04-29 12:48 52.89472 103.94187 20516 ft 372 kts 341°
2026-04-29 12:49 52.91910 103.92700 21226 ft 374 kts 341°
2026-04-29 12:49 52.94357 103.91207 22088 ft 375 kts 341°
2026-04-29 12:49 52.96812 103.89707 22930 ft 378 kts 341°
2026-04-29 12:49 52.99292 103.88191 23643 ft 382 kts 340°
2026-04-29 12:50 53.01802 103.86653 24256 ft 387 kts 340°
2026-04-29 12:50 53.04340 103.85096 24832 ft 391 kts 340°
2026-04-29 12:50 53.09972 103.81633 26134 ft 399 kts 340°
2026-04-29 12:51 53.12574 103.80031 26428 ft 410 kts 340°
2026-04-29 12:51 53.15286 103.78357 26678 ft 422 kts 340°
2026-04-29 12:51 53.18056 103.76525 26886 ft 435 kts 337°
2026-04-29 12:51 53.20853 103.74411 27125 ft 447 kts 335°
2026-04-29 12:52 53.23683 103.72136 27360 ft 458 kts 334°
2026-04-29 12:52 53.26574 103.69770 27647 ft 466 kts 334°
2026-04-29 12:52 53.29505 103.67380 28085 ft 471 kts 334°
2026-04-29 12:52 53.32467 103.64991 28573 ft 475 kts 335°
2026-04-29 12:53 53.35459 103.62603 29001 ft 478 kts 335°
2026-04-29 12:53 53.38476 103.60213 29397 ft 481 kts 335°
2026-04-29 12:53 53.41513 103.57815 29817 ft 482 kts 335°
2026-04-29 12:53 53.44548 103.55419 30105 ft 484 kts 335°
2026-04-29 12:54 53.47494 103.52650 30205 ft 487 kts 328°
2026-04-29 12:54 53.50220 103.49321 30353 ft 476 kts 326°
2026-04-29 12:54 53.52809 103.46118 30530 ft 450 kts 327°
2026-04-29 12:54 53.55286 103.43136 30797 ft 427 kts 327°
2026-04-29 12:55 53.57680 103.40226 31115 ft 424 kts 324°
2026-04-29 12:55 53.60036 103.36653 31470 ft 430 kts 316°
2026-04-29 12:55 53.61941 103.32723 31787 ft 437 kts 307°
2026-04-29 12:55 53.63517 103.28315 32114 ft 440 kts 301°
2026-04-29 12:56 53.64427 103.25260 32344 ft 442 kts 298°
2026-04-29 12:56 53.65688 103.20522 32687 ft 444 kts 296°
2026-04-29 12:56 53.66883 103.15705 33037 ft 446 kts 295°
2026-04-29 12:56 53.68066 103.10849 33392 ft 448 kts 295°
2026-04-29 12:57 53.69261 103.05978 33731 ft 451 kts 296°
2026-04-29 12:57 53.70477 103.01091 34074 ft 453 kts 296°
2026-04-29 12:57 53.71712 102.96188 34398 ft 455 kts 296°
2026-04-29 12:57 53.72965 102.91255 34683 ft 457 kts 296°
2026-04-29 12:58 53.74224 102.86309 34956 ft 460 kts 296°
2026-04-29 12:58 53.75488 102.81345 35221 ft 462 kts 296°
2026-04-29 12:58 53.76759 102.76345 35468 ft 464 kts 296°
2026-04-29 12:58 53.78029 102.71330 35693 ft 464 kts 296°
2026-04-29 12:59 53.79300 102.66310 35909 ft 464 kts 296°
2026-04-29 12:59 53.80723 102.61436 36141 ft 462 kts 300°
2026-04-29 12:59 53.82240 102.56629 36354 ft 463 kts 301°
2026-04-29 12:59 53.83783 102.51833 36566 ft 465 kts 301°
2026-04-29 13:00 53.85339 102.47043 36789 ft 465 kts 301°
2026-04-29 13:00 53.86902 102.42246 36996 ft 465 kts 301°
2026-04-29 13:00 53.88463 102.37454 37179 ft 464 kts 301°
2026-04-29 13:00 53.90022 102.32652 37366 ft 464 kts 301°
2026-04-29 13:01 53.91555 102.27920 37559 ft 464 kts 301°
2026-04-29 13:01 53.93104 102.23120 37718 ft 464 kts 301°
2026-04-29 13:01 53.94656 102.18301 37887 ft 465 kts 301°
2026-04-29 13:01 53.96202 102.13485 38027 ft 465 kts 301°
2026-04-29 13:02 53.97748 102.08659 38190 ft 466 kts 301°
2026-04-29 13:02 53.99292 102.03830 38365 ft 466 kts 301°
2026-04-29 13:02 54.00838 101.98988 38495 ft 466 kts 301°
2026-04-29 13:02 54.02381 101.94150 38644 ft 466 kts 301°
2026-04-29 13:03 54.03928 101.89309 38786 ft 466 kts 301°
2026-04-29 13:03 54.05476 101.84457 38907 ft 466 kts 300°
2026-04-29 13:03 54.07019 101.79610 39046 ft 466 kts 300°
2026-04-29 13:04 54.10101 101.69897 39218 ft 466 kts 300°
2026-04-29 13:04 54.13174 101.60175 39410 ft 466 kts 301°
2026-04-29 13:05 54.16239 101.50437 39574 ft 466 kts 300°
2026-04-29 13:05 54.19298 101.40683 39748 ft 466 kts 300°
2026-04-29 13:06 54.22346 101.30921 39920 ft 466 kts 300°
2026-04-29 13:06 54.25385 101.21150 40050 ft 465 kts 300°
2026-04-29 13:07 54.28414 101.11369 40175 ft 465 kts 300°
2026-04-29 13:07 54.31435 101.01578 40328 ft 465 kts 300°
2026-04-29 13:08 54.34447 100.91774 40459 ft 465 kts 300°
2026-04-29 13:08 54.37454 100.81946 40576 ft 465 kts 300°
2026-04-29 13:09 54.40449 100.72116 40692 ft 465 kts 300°
2026-04-29 13:09 54.43423 100.62312 40513 ft 457 kts 300°
2026-04-29 13:09 54.44884 100.57476 40357 ft 456 kts 300°
2026-04-29 13:10 54.46353 100.52610 40317 ft 462 kts 300°
2026-04-29 13:10 54.50251 100.39673 40320 ft 465 kts 300°
2026-04-29 13:11 54.58610 100.11645 40337 ft 465 kts 300°
2026-04-29 13:11 54.70233 99.72111 40310 ft 465 kts 299°
2026-04-29 13:12 54.81910 99.31716 40327 ft 466 kts 299°
2026-04-29 13:12 54.90998 98.89931 40335 ft 471 kts 284°
2026-04-29 13:13 54.95762 98.45104 40349 ft 472 kts 284°
2026-04-29 13:13 55.00417 98.00151 40351 ft 471 kts 283°
2026-04-29 13:14 55.04904 97.55089 40355 ft 471 kts 283°
2026-04-29 13:14 55.09219 97.10009 40353 ft 472 kts 283°
2026-04-29 13:15 55.13119 96.64599 40374 ft 473 kts 282°
2026-04-29 13:15 55.16862 96.19002 40372 ft 474 kts 282°
2026-04-29 13:16 55.20436 95.73296 40374 ft 474 kts 281°
2026-04-29 13:16 55.23835 95.27546 40377 ft 474 kts 281°
2026-04-29 13:17 55.28121 94.82278 40378 ft 466 kts 295°
2026-04-29 13:17 55.38681 94.40571 40374 ft 467 kts 297°
2026-04-29 13:18 55.49137 93.98666 40379 ft 466 kts 297°
2026-04-29 13:18 55.59403 93.56743 40370 ft 465 kts 297°
2026-04-29 13:19 55.69511 93.14656 40371 ft 464 kts 296°
2026-04-29 13:19 55.79398 92.72681 40359 ft 463 kts 296°
2026-04-29 13:20 55.89289 92.30313 40354 ft 464 kts 296°
2026-04-29 13:20 55.99150 91.87824 40358 ft 464 kts 296°
2026-04-29 13:21 56.08693 91.45042 40357 ft 460 kts 293°
2026-04-29 13:21 56.18178 91.02404 40355 ft 461 kts 294°
2026-04-29 13:22 56.27410 90.59406 40353 ft 462 kts 289°
2026-04-29 13:22 56.34422 90.14887 40352 ft 461 kts 288°
2026-04-29 13:23 56.41205 89.70323 40358 ft 460 kts 287°
2026-04-29 13:23 56.47821 89.25653 40355 ft 460 kts 287°
2026-04-29 13:24 56.54280 88.80803 40355 ft 460 kts 287°
2026-04-29 13:24 56.60565 88.35882 40344 ft 460 kts 286°
2026-04-29 13:25 56.66685 87.90832 40347 ft 459 kts 286°
2026-04-29 13:25 56.75532 87.23201 40345 ft 457 kts 285°
2026-04-29 13:26 56.81206 86.78094 40342 ft 454 kts 284°
2026-04-29 13:26 56.86678 86.33191 40342 ft 452 kts 284°
2026-04-29 13:27 56.92642 85.88874 40314 ft 450 kts 289°
2026-04-29 13:27 57.00596 85.45168 40329 ft 450 kts 289°
2026-04-29 13:28 57.08328 85.01575 40430 ft 457 kts 288°
2026-04-29 13:28 57.12232 84.79167 41401 ft 454 kts 288°
2026-04-29 13:28 57.15630 84.57064 42024 ft 457 kts 284°
2026-04-29 13:29 57.17886 84.39998 42306 ft 458 kts 284°
2026-04-29 13:29 57.19431 84.28599 42309 ft 458 kts 284°
2026-04-29 13:29 57.25538 83.83283 42915 ft 460 kts 284°
2026-04-29 13:30 57.28573 83.60221 43463 ft 463 kts 283°
2026-04-29 13:30 57.31576 83.37206 43924 ft 464 kts 285°
2026-04-29 13:30 57.33201 83.25456 44076 ft 466 kts 285°
2026-04-29 13:31 57.33970 83.19629 44209 ft 466 kts 285°
2026-04-29 13:31 57.34718 83.13804 44288 ft 467 kts 285°
2026-04-29 13:31 57.36191 83.02086 44380 ft 467 kts 284°
2026-04-29 13:32 57.36920 82.96227 44483 ft 467 kts 284°
2026-04-29 13:32 57.37648 82.90355 44596 ft 467 kts 284°
2026-04-29 13:32 57.39099 82.78616 44764 ft 468 kts 284°
2026-04-29 13:33 57.40543 82.66855 44930 ft 468 kts 284°
2026-04-29 13:33 57.41978 82.55075 45075 ft 468 kts 284°
2026-04-29 13:34 57.42688 82.49208 44971 ft 463 kts 284°
2026-04-29 13:34 57.43388 82.43393 44278 ft 462 kts 284°
2026-04-29 13:34 57.44090 82.37553 43465 ft 463 kts 284°
2026-04-29 13:34 57.44788 82.31719 42741 ft 462 kts 284°
2026-04-29 13:35 57.45481 82.25913 42093 ft 460 kts 284°
2026-04-29 13:35 57.46169 82.20130 41461 ft 457 kts 284°
2026-04-29 13:35 57.46850 82.14388 40835 ft 455 kts 283°
2026-04-29 13:35 57.47526 82.08657 40412 ft 452 kts 283°
2026-04-29 13:36 57.48196 82.02951 40282 ft 452 kts 283°
2026-04-29 13:36 57.49312 81.93388 40270 ft 452 kts 283°
2026-04-29 13:36 57.51939 81.70565 40273 ft 451 kts 283°
2026-04-29 13:37 57.55514 81.38817 40266 ft 452 kts 283°
2026-04-29 13:37 57.60532 80.92908 40270 ft 452 kts 282°
2026-04-29 13:38 57.65380 80.46969 40251 ft 451 kts 282°
2026-04-29 13:38 57.70093 80.00952 40244 ft 450 kts 281°
2026-04-29 13:39 57.74396 79.54810 40236 ft 450 kts 278°
2026-04-29 13:39 57.77739 79.08558 40232 ft 451 kts 278°
2026-04-29 13:40 57.81034 78.61877 40222 ft 452 kts 277°
2026-04-29 13:40 57.84158 78.15053 40211 ft 452 kts 277°
2026-04-29 13:41 57.87105 77.68229 40204 ft 452 kts 276°
2026-04-29 13:41 57.89880 77.21304 40192 ft 451 kts 275°
2026-04-29 13:42 57.92476 76.74425 40203 ft 451 kts 275°
2026-04-29 13:42 57.94901 76.27457 40184 ft 450 kts 275°
2026-04-29 13:43 57.97146 75.80554 40180 ft 450 kts 274°
2026-04-29 13:43 57.99095 75.41559 40157 ft 450 kts 274°
2026-04-29 13:44 58.01292 74.94624 40151 ft 449 kts 273°
2026-04-29 13:44 58.03627 74.39997 40141 ft 449 kts 273°
2026-04-29 13:45 58.05164 74.00617 40125 ft 448 kts 272°
2026-04-29 13:45 58.07089 73.46072 40116 ft 447 kts 272°
2026-04-29 13:46 58.08558 72.99172 40110 ft 447 kts 271°
2026-04-29 13:46 58.09656 72.59809 40102 ft 447 kts 271°
2026-04-29 13:47 58.10862 72.13172 40097 ft 447 kts 271°
2026-04-29 13:47 58.11913 71.66168 40083 ft 446 kts 270°
2026-04-29 13:48 58.12788 71.19291 40082 ft 446 kts 270°
2026-04-29 13:48 58.13489 70.72510 40073 ft 444 kts 269°
2026-04-29 13:49 58.14018 70.25765 40065 ft 445 kts 269°
2026-04-29 13:49 58.14378 69.78903 40060 ft 445 kts 268°
2026-04-29 13:50 58.14565 69.32056 40057 ft 445 kts 268°
2026-04-29 13:50 58.14588 68.85054 40050 ft 448 kts 267°
2026-04-29 13:51 58.14429 68.37839 40042 ft 449 kts 267°
2026-04-29 13:51 58.12152 67.91064 40057 ft 446 kts 261°
2026-04-29 13:52 58.09141 67.44433 40053 ft 447 kts 261°
2026-04-29 13:52 58.05961 66.97790 40057 ft 448 kts 260°
2026-04-29 13:53 58.02671 66.51118 40056 ft 449 kts 260°
2026-04-29 13:53 57.99228 66.04464 40067 ft 448 kts 260°
2026-04-29 13:54 57.95571 65.58059 40058 ft 448 kts 259°
2026-04-29 13:54 57.91722 65.11717 40061 ft 448 kts 259°
2026-04-29 13:55 57.87699 64.65420 40062 ft 449 kts 258°
2026-04-29 13:55 57.83500 64.19132 40067 ft 450 kts 258°
2026-04-29 13:56 57.80902 63.86394 40055 ft 451 kts 257°
2026-04-29 13:56 57.79967 63.74844 40061 ft 451 kts 258°
2026-04-29 13:57 57.79052 63.63218 40059 ft 451 kts 258°
2026-04-29 13:57 57.78146 63.51514 40066 ft 450 kts 258°
2026-04-29 13:58 57.77249 63.39980 40063 ft 450 kts 258°
2026-04-29 13:58 57.76335 63.28385 40066 ft 450 kts 258°
2026-04-29 13:59 57.75409 63.16799 40064 ft 450 kts 257°
2026-04-29 13:59 57.74472 63.05218 40071 ft 450 kts 257°
2026-04-29 14:00 57.73526 62.93648 40073 ft 450 kts 257°
2026-04-29 14:00 57.72569 62.82087 40073 ft 449 kts 257°
2026-04-29 14:01 57.71606 62.70538 40070 ft 449 kts 257°
2026-04-29 14:01 57.70635 62.58987 40072 ft 449 kts 257°
2026-04-29 14:02 57.69651 62.47452 40072 ft 449 kts 257°
2026-04-29 14:02 57.68658 62.35920 40087 ft 449 kts 257°
2026-04-29 14:03 57.67656 62.24408 40104 ft 449 kts 257°
2026-04-29 14:03 57.66644 62.12896 40072 ft 449 kts 257°
2026-04-29 14:04 57.65620 62.01380 40074 ft 450 kts 257°
2026-04-29 14:04 57.64585 61.89867 40074 ft 450 kts 256°
2026-04-29 14:05 57.63540 61.78359 40074 ft 449 kts 256°
2026-04-29 14:05 57.62482 61.66862 40075 ft 450 kts 256°
2026-04-29 14:06 57.61407 61.55349 40078 ft 450 kts 256°
2026-04-29 14:06 57.60323 61.43847 40071 ft 450 kts 256°
2026-04-29 14:07 57.59229 61.32347 40073 ft 450 kts 256°
2026-04-29 14:07 57.58125 61.20856 40078 ft 450 kts 256°
2026-04-29 14:08 57.57018 61.09450 40084 ft 451 kts 256°
2026-04-29 14:08 57.55889 60.97936 40077 ft 452 kts 256°
2026-04-29 14:09 57.54749 60.86422 40075 ft 453 kts 256°
2026-04-29 14:09 57.53598 60.74902 40075 ft 453 kts 256°
2026-04-29 14:10 57.52436 60.63392 40077 ft 453 kts 255°
2026-04-29 14:10 57.51252 60.51884 40088 ft 452 kts 255°
2026-04-29 14:11 57.50042 60.40407 40075 ft 452 kts 255°
2026-04-29 14:11 57.48821 60.28936 40075 ft 452 kts 255°
2026-04-29 14:12 57.47592 60.17476 40084 ft 453 kts 255°
2026-04-29 14:12 57.46349 60.05979 40072 ft 454 kts 255°
2026-04-29 14:13 57.45095 59.94476 40076 ft 455 kts 255°
2026-04-29 14:13 57.43844 59.82965 40073 ft 456 kts 257°
2026-04-29 14:14 57.42661 59.71388 40063 ft 457 kts 257°
2026-04-29 14:14 57.41438 59.59906 40065 ft 457 kts 257°
2026-04-29 14:15 57.40140 59.48293 40064 ft 456 kts 256°
2026-04-29 14:15 57.38827 59.36796 40061 ft 456 kts 256°
2026-04-29 14:16 57.37508 59.25361 40063 ft 457 kts 256°
2026-04-29 14:16 57.36172 59.13853 40061 ft 457 kts 256°
2026-04-29 14:17 57.34827 59.02353 40059 ft 457 kts 256°
2026-04-29 14:17 57.33470 58.90851 40057 ft 457 kts 256°
2026-04-29 14:18 57.32104 58.79366 40057 ft 457 kts 256°
2026-04-29 14:18 57.30726 58.67886 40068 ft 457 kts 256°
2026-04-29 14:19 57.29338 58.56417 40056 ft 457 kts 256°
2026-04-29 14:19 57.27939 58.44943 40056 ft 458 kts 256°
2026-04-29 14:20 57.26528 58.33468 40052 ft 458 kts 256°
2026-04-29 14:20 57.25109 58.22021 40058 ft 457 kts 256°
2026-04-29 14:21 57.23691 58.10554 40049 ft 459 kts 256°
2026-04-29 14:21 57.22265 57.99051 40050 ft 460 kts 256°
2026-04-29 14:22 57.20825 57.87528 40047 ft 461 kts 256°
2026-04-29 14:22 57.19377 57.76038 40047 ft 460 kts 256°
2026-04-29 14:23 57.17916 57.64541 40049 ft 460 kts 256°
2026-04-29 14:23 57.16444 57.53058 40049 ft 460 kts 255°
2026-04-29 14:24 57.14964 57.41593 40055 ft 459 kts 255°
2026-04-29 14:24 57.13476 57.30162 40052 ft 459 kts 255°
2026-04-29 14:25 57.11980 57.18763 40054 ft 459 kts 255°
2026-04-29 14:25 57.10473 57.07356 40054 ft 459 kts 255°
2026-04-29 14:26 57.08955 56.95966 40057 ft 458 kts 255°
2026-04-29 14:26 57.07428 56.84589 40057 ft 459 kts 255°
2026-04-29 14:27 57.05891 56.73219 40056 ft 459 kts 255°
2026-04-29 14:28 57.03204 56.56487 40054 ft 458 kts 248°
2026-04-29 14:28 57.00786 56.45664 40053 ft 457 kts 247°
2026-04-29 14:29 56.98290 56.34876 40066 ft 456 kts 246°
2026-04-29 14:29 56.95816 56.24243 40058 ft 456 kts 246°
2026-04-29 14:30 56.93326 56.13554 40061 ft 456 kts 246°
2026-04-29 14:30 56.90830 56.02869 40062 ft 456 kts 246°
2026-04-29 14:31 56.88325 55.92196 40060 ft 456 kts 246°
2026-04-29 14:31 56.86242 55.83256 40059 ft 456 kts 247°
2026-04-29 14:32 56.83798 55.72549 40077 ft 457 kts 247°
2026-04-29 14:32 56.80942 55.60080 40057 ft 459 kts 247°
2026-04-29 14:33 56.78876 55.51138 40058 ft 460 kts 247°
2026-04-29 14:33 56.76381 55.40408 40058 ft 460 kts 247°
2026-04-29 14:34 56.73873 55.29687 40067 ft 460 kts 247°
2026-04-29 14:34 56.71356 55.18977 40062 ft 460 kts 246°
2026-04-29 14:35 56.68831 55.08285 40061 ft 460 kts 246°
2026-04-29 14:35 56.66297 54.97609 40058 ft 460 kts 246°
2026-04-29 14:36 56.63746 54.86914 40056 ft 460 kts 246°
2026-04-29 14:36 56.61193 54.76268 40059 ft 460 kts 246°
2026-04-29 14:37 56.58627 54.65613 40056 ft 461 kts 246°
2026-04-29 14:37 56.56053 54.54981 40055 ft 461 kts 246°
2026-04-29 14:38 56.53487 54.44434 40047 ft 446 kts 246°
2026-04-29 14:38 56.52248 54.39366 39843 ft 435 kts 246°
2026-04-29 14:38 56.51029 54.34396 39432 ft 430 kts 246°
2026-04-29 14:38 56.49817 54.29467 39004 ft 426 kts 246°
2026-04-29 14:39 56.48619 54.24589 38548 ft 423 kts 246°
2026-04-29 14:39 56.47426 54.19753 38017 ft 419 kts 246°
2026-04-29 14:39 56.46240 54.14968 37507 ft 415 kts 246°
2026-04-29 14:39 56.45063 54.10234 37008 ft 411 kts 246°
2026-04-29 14:40 56.43896 54.05549 36521 ft 407 kts 246°
2026-04-29 14:40 56.42739 54.00907 36038 ft 403 kts 245°
2026-04-29 14:40 56.41591 53.96309 35532 ft 400 kts 245°
2026-04-29 14:40 56.40452 53.91743 35035 ft 397 kts 245°
2026-04-29 14:41 56.39324 53.87212 34539 ft 395 kts 245°
2026-04-29 14:41 56.38203 53.82712 34040 ft 392 kts 245°
2026-04-29 14:41 56.37088 53.78249 33470 ft 388 kts 245°
2026-04-29 14:41 56.35982 53.73828 32876 ft 385 kts 245°
2026-04-29 14:42 56.34884 53.69447 32333 ft 382 kts 245°
2026-04-29 14:42 56.33794 53.65107 31782 ft 378 kts 245°
2026-04-29 14:42 56.32730 53.60887 31435 ft 370 kts 245°
2026-04-29 14:42 56.31657 53.56670 31114 ft 361 kts 245°
2026-04-29 14:43 56.30678 53.52868 30834 ft 356 kts 245°
2026-04-29 14:43 56.29635 53.48842 30527 ft 355 kts 245°
2026-04-29 14:43 56.28592 53.44822 30218 ft 354 kts 245°
2026-04-29 14:43 56.27552 53.40810 29862 ft 353 kts 245°
2026-04-29 14:44 56.26515 53.36813 29471 ft 351 kts 245°
2026-04-29 14:44 56.25488 53.32856 29094 ft 348 kts 245°
2026-04-29 14:44 56.24468 53.28931 28733 ft 345 kts 245°
2026-04-29 14:44 56.23453 53.25030 28373 ft 343 kts 245°
2026-04-29 14:45 56.22445 53.21168 28001 ft 341 kts 245°
2026-04-29 14:45 56.21440 53.17322 27662 ft 338 kts 245°
2026-04-29 14:45 56.20443 53.13511 27305 ft 336 kts 245°
2026-04-29 14:45 56.19450 53.09725 26965 ft 334 kts 245°
2026-04-29 14:46 56.18461 53.05956 26612 ft 332 kts 245°
2026-04-29 14:46 56.17478 53.02222 26289 ft 330 kts 245°
2026-04-29 14:46 56.16499 52.98506 25957 ft 328 kts 244°
2026-04-29 14:46 56.15527 52.94822 25629 ft 326 kts 244°
2026-04-29 14:47 56.14559 52.91157 25311 ft 324 kts 244°
2026-04-29 14:47 56.13594 52.87514 24980 ft 322 kts 244°
2026-04-29 14:47 56.12634 52.83893 24658 ft 321 kts 244°
2026-04-29 14:47 56.11678 52.80296 24347 ft 321 kts 244°
2026-04-29 14:48 56.10676 52.76527 24027 ft 350 kts 244°
2026-04-29 14:48 56.09601 52.72491 23690 ft 365 kts 244°
2026-04-29 14:48 56.08499 52.68372 23318 ft 367 kts 244°
2026-04-29 14:48 56.07396 52.64261 22928 ft 366 kts 244°
2026-04-29 14:49 56.06298 52.60170 22553 ft 364 kts 244°
2026-04-29 14:49 56.05211 52.56094 22208 ft 362 kts 244°
2026-04-29 14:49 56.04134 52.52050 21845 ft 360 kts 244°
2026-04-29 14:49 56.03056 52.48003 21495 ft 359 kts 244°
2026-04-29 14:50 56.01983 52.43981 21126 ft 358 kts 244°
2026-04-29 14:50 56.00912 52.39974 20803 ft 357 kts 244°
2026-04-29 14:50 55.99843 52.35984 20461 ft 356 kts 244°
2026-04-29 14:50 55.98775 52.32007 20126 ft 354 kts 244°
2026-04-29 14:51 55.97708 52.28043 19801 ft 353 kts 244°
2026-04-29 14:51 55.96645 52.24099 19468 ft 352 kts 244°
2026-04-29 14:51 55.95584 52.20169 19136 ft 351 kts 244°
2026-04-29 14:51 55.94523 52.16247 18814 ft 350 kts 244°
2026-04-29 14:52 55.93467 52.12350 18499 ft 349 kts 244°
2026-04-29 14:52 55.92410 52.08453 17932 ft 349 kts 244°
2026-04-29 14:52 55.91352 52.04564 17109 ft 347 kts 244°
2026-04-29 14:52 55.90305 52.00730 16710 ft 342 kts 244°
2026-04-29 14:53 55.89266 51.96924 16453 ft 343 kts 244°
2026-04-29 14:53 55.88221 51.93096 16179 ft 343 kts 244°
2026-04-29 14:53 55.87178 51.89286 15932 ft 342 kts 244°
2026-04-29 14:53 55.86137 51.85486 15676 ft 342 kts 244°
2026-04-29 14:54 55.85093 51.81682 15432 ft 342 kts 244°
2026-04-29 14:54 55.84062 51.77934 15177 ft 341 kts 244°
2026-04-29 14:54 55.83004 51.74092 14913 ft 342 kts 244°
2026-04-29 14:54 55.81971 51.70349 14662 ft 342 kts 244°
2026-04-29 14:55 55.80924 51.66558 14411 ft 341 kts 244°
2026-04-29 14:55 55.79874 51.62767 14164 ft 341 kts 244°
2026-04-29 14:55 55.78828 51.58995 13914 ft 341 kts 244°
2026-04-29 14:55 55.77780 51.55220 13647 ft 340 kts 244°
2026-04-29 14:56 55.76730 51.51448 13356 ft 339 kts 244°
2026-04-29 14:56 55.75685 51.47700 13070 ft 338 kts 244°
2026-04-29 14:56 55.74645 51.43974 12828 ft 337 kts 244°
2026-04-29 14:56 55.73604 51.40253 12546 ft 335 kts 244°
2026-04-29 14:57 55.72608 51.36520 12263 ft 334 kts 247°
2026-04-29 14:57 55.71712 51.32728 11996 ft 333 kts 248°
2026-04-29 14:57 55.70833 51.28937 11731 ft 332 kts 248°
2026-04-29 14:57 55.69954 51.25164 11468 ft 331 kts 248°
2026-04-29 14:58 55.69074 51.21409 11195 ft 330 kts 248°
2026-04-29 14:58 55.68191 51.17663 10949 ft 329 kts 248°
2026-04-29 14:58 55.67312 51.13944 10699 ft 323 kts 248°
2026-04-29 14:58 55.66465 51.10372 10446 ft 306 kts 248°
2026-04-29 14:59 55.65664 51.06991 10219 ft 291 kts 248°
2026-04-29 14:59 55.64900 51.03770 9982 ft 277 kts 248°
2026-04-29 14:59 55.64308 51.00605 9715 ft 266 kts 257°
2026-04-29 14:59 55.63975 50.97489 9429 ft 257 kts 260°
2026-04-29 15:00 55.63681 50.94352 9129 ft 254 kts 260°
2026-04-29 15:00 55.63401 50.91274 8828 ft 253 kts 260°
2026-04-29 15:00 55.63126 50.88212 8535 ft 252 kts 260°
2026-04-29 15:00 55.62854 50.85162 8241 ft 250 kts 260°
2026-04-29 15:01 55.62584 50.82122 7953 ft 250 kts 260°
2026-04-29 15:01 55.62314 50.79091 7664 ft 249 kts 260°
2026-04-29 15:01 55.62046 50.76081 7379 ft 247 kts 260°
2026-04-29 15:01 55.61778 50.73088 7094 ft 246 kts 260°
2026-04-29 15:02 55.61519 50.70185 6819 ft 238 kts 260°
2026-04-29 15:02 55.61258 50.67290 6550 ft 234 kts 260°
2026-04-29 15:02 55.61005 50.64497 6248 ft 233 kts 260°
2026-04-29 15:02 55.60750 50.61674 5962 ft 232 kts 260°
2026-04-29 15:03 55.60495 50.58857 5737 ft 232 kts 260°
2026-04-29 15:03 55.60238 50.56036 5606 ft 233 kts 260°
2026-04-29 15:03 55.59981 50.53208 5467 ft 233 kts 260°
2026-04-29 15:03 55.59724 50.50389 5337 ft 232 kts 260°
2026-04-29 15:04 55.59467 50.47573 5203 ft 232 kts 260°
2026-04-29 15:04 55.59209 50.44755 5086 ft 232 kts 260°
2026-04-29 15:04 55.58951 50.41944 5057 ft 232 kts 259°
2026-04-29 15:04 55.58691 50.39121 5056 ft 233 kts 260°
2026-04-29 15:05 55.58430 50.36299 5045 ft 233 kts 260°
2026-04-29 15:05 55.58169 50.33472 5059 ft 233 kts 260°
2026-04-29 15:05 55.57907 50.30654 5061 ft 232 kts 259°
2026-04-29 15:05 55.57645 50.27835 5051 ft 233 kts 260°
2026-04-29 15:06 55.57382 50.25016 5063 ft 233 kts 258°
2026-04-29 15:06 55.57096 50.22205 5055 ft 232 kts 257°
2026-04-29 15:06 55.56802 50.19399 5060 ft 233 kts 257°
2026-04-29 15:06 55.56517 50.16583 5062 ft 233 kts 257°
2026-04-29 15:07 55.56240 50.13763 4754 ft 234 kts 258°
2026-04-29 15:07 55.55973 50.10994 4558 ft 223 kts 258°
2026-04-29 15:07 55.55721 50.08359 4370 ft 212 kts 258°
2026-04-29 15:07 55.55479 50.05825 4072 ft 208 kts 258°
2026-04-29 15:08 55.55240 50.03323 3811 ft 204 kts 258°
2026-04-29 15:08 55.55011 50.00911 3678 ft 194 kts 258°
2026-04-29 15:08 55.54791 49.98600 3489 ft 188 kts 258°
2026-04-29 15:08 55.54576 49.96346 3179 ft 185 kts 257°
2026-04-29 15:09 55.54367 49.94151 2903 ft 177 kts 257°
2026-04-29 15:09 55.54164 49.92037 2721 ft 174 kts 257°
2026-04-29 15:09 55.53957 49.89920 2697 ft 176 kts 257°
2026-04-29 15:09 55.53744 49.87739 2699 ft 185 kts 258°
2026-04-29 15:10 55.53524 49.85479 2699 ft 188 kts 258°
2026-04-29 15:10 55.53305 49.83207 2705 ft 188 kts 257°
2026-04-29 15:10 55.53084 49.80935 2706 ft 188 kts 257°
2026-04-29 15:10 55.52863 49.78674 2703 ft 184 kts 258°
2026-04-29 15:11 55.52662 49.76574 2730 ft 167 kts 258°
2026-04-29 15:11 55.52474 49.74619 2710 ft 154 kts 257°
2026-04-29 15:11 55.52299 49.72807 2708 ft 147 kts 256°
2026-04-29 15:11 55.52125 49.71043 2714 ft 146 kts 256°
2026-04-29 15:12 55.51951 49.69279 2709 ft 147 kts 256°
2026-04-29 15:12 55.51835 49.68103 2705 ft 147 kts 257°
2026-04-29 15:12 55.51601 49.65721 2701 ft 147 kts 257°
2026-04-29 15:12 55.51461 49.64026 2695 ft 128 kts 259°
2026-04-29 15:13 55.51384 49.62547 2709 ft 117 kts 261°
2026-04-29 15:13 55.51347 49.61119 2708 ft 117 kts 263°
2026-04-29 15:13 55.51349 49.59687 2697 ft 117 kts 266°
2026-04-29 15:13 55.51392 49.58251 2709 ft 117 kts 269°
2026-04-29 15:14 55.51479 49.56825 2709 ft 117 kts 271°
2026-04-29 15:14 55.51606 49.55402 2703 ft 117 kts 274°
2026-04-29 15:14 55.51776 49.53990 2708 ft 118 kts 276°
2026-04-29 15:14 55.51989 49.52592 2706 ft 119 kts 279°
2026-04-29 15:15 55.52242 49.51197 2702 ft 120 kts 282°
2026-04-29 15:15 55.52541 49.49817 2705 ft 120 kts 284°
2026-04-29 15:15 55.52863 49.48457 2706 ft 120 kts 283°
2026-04-29 15:15 55.53230 49.47122 2703 ft 122 kts 292°
2026-04-29 15:16 55.53679 49.45850 2643 ft 123 kts 295°
2026-04-29 15:16 55.54150 49.44597 2491 ft 121 kts 294°
2026-04-29 15:16 55.54612 49.43349 2313 ft 122 kts 298°
2026-04-29 15:16 55.55094 49.42121 2134 ft 122 kts 296°
2026-04-29 15:17 55.55573 49.40887 1956 ft 122 kts 298°
2026-04-29 15:17 55.56052 49.39653 1787 ft 122 kts 298°
2026-04-29 15:17 55.56533 49.38414 1621 ft 122 kts 298°
2026-04-29 15:17 55.56849 49.37595 1505 ft 122 kts 300°
2026-04-29 15:18 55.57328 49.36366 1330 ft 121 kts 298°
2026-04-29 15:18 55.57958 49.34737 1102 ft 123 kts 300°
2026-04-29 15:18 55.58444 49.33484 933 ft 124 kts 301°
2026-04-29 15:18 55.58934 49.32234 691 ft 123 kts 301°
2026-04-29 15:19 55.59256 49.31396 638 ft 124 kts 302°
2026-04-29 15:19 55.59910 49.29725 425 ft 122 kts 302°
2026-04-29 15:19 55.60197 49.28976 420 ft 90 kts 304°
2026-04-29 15:19 55.60388 49.28499 413 ft 13 kts 306°
2026-04-29 15:20 55.60517 49.28150 410 ft 44 kts 303°
2026-04-29 15:20 55.60685 49.27730 411 ft 41 kts 303°
2026-04-29 15:20 55.60845 49.27310 405 ft 40 kts 303°
2026-04-29 15:20 55.61004 49.26902 395 ft 39 kts 306°
2026-04-29 15:21 55.61084 49.26798 394 ft 8 kts
2026-04-29 15:21 55.61144 49.26839 395 ft 0 kts 30°
2026-04-29 15:21 55.61147 49.26842 395 ft 1 kts 30°
2026-04-29 15:21 55.61168 49.26866 396 ft 6 kts 33°
2026-04-29 15:22 55.61204 49.26919 398 ft 4 kts 59°
2026-04-29 15:22 55.61205 49.27006 396 ft 11 kts 102°
2026-04-29 15:22 55.61156 49.27156 399 ft 17 kts 123°
2026-04-29 15:22 55.61073 49.27371 401 ft 31 kts 125°
2026-04-29 15:23 55.60914 49.27781 404 ft 41 kts 123°
2026-04-29 15:23 55.60753 49.28195 410 ft 40 kts 125°
2026-04-29 15:23 55.60614 49.28564 408 ft 30 kts 117°
2026-04-29 15:23 55.60598 49.28656 415 ft 10 kts 101°
2026-04-29 15:24 55.60581 49.28914 417 ft 26 kts 94°
2026-04-29 15:24 55.60613 49.29187 413 ft 15 kts 39°
2026-04-29 15:24 55.60709 49.29303 416 ft 18 kts 31°
2026-04-29 15:24 55.60800 49.29439 413 ft 13 kts 72°
2026-04-29 15:25 55.60775 49.29567 420 ft 12 kts 120°
2026-04-29 15:25 55.60725 49.29706 416 ft 15 kts 123°
2026-04-29 15:25 55.60661 49.29872 424 ft 18 kts 125°
2026-04-29 15:25 55.60609 49.30004 424 ft 7 kts 126°
2026-04-29 15:26 55.60609 49.30088 426 ft 8 kts 63°
2026-04-29 15:26 55.60627 49.30118 423 ft 0 kts 36°
2026-04-29 15:27 55.60646 49.30141 429 ft 0 kts 33°